Showing default

SES 17, 49332

Orbit data source: Space-Track

SES 17, 49332 is a payload satellite owned by SES (LU) in GEO that was launched on Sun, 24 Oct 2021 UTC via an ARIANE 5ECA+ launch vehicle from the French Guiana (FRGUI). Payload-class satellites include a variety of spacecraft equipped with specific instruments for various scientific and technological missions. These include communications satellites like Starlink; space stations such as the ISS; scientific satellites like the Hubble; Earth observation satellites from companies like Planet Labs, Umbra, and HawkEye 360; GPS; miniature CubeSats for education and research; and military/defense satellites.

Loading next visibility...
Identifier
49332, 2021-095A
Orbit
GEO
Country
Flag of LULU / SES
Related business
Manufacturer
Thales Alenia
Mission
Operational Commercial Communications
Bus & Motor
SPACEBUS NEO200, XPS/PPS-5000
Mass
6,411 kg wet, ~5,800 kg dry
Launch date (UTC)
2021-10-24 (4 years ago)
Launch vehicle
ARIANE 5ECA+
Launch site
French Guiana (FRGUI)
Object type
Payload
Rocket body
Debris
Shape & HBR
Box + 2 Pan, 23.0 m
Radar Cross Section
63.452 m², Large (>1 m²)

Expand to show TLE details & history
Last TLE update: 8 hours ago

TLE from 8 hours ago
0 SES 17
1 49332U 21095A   26071.55849620 -.00000272  00000-0  00000-0 0  9995
2 49332   0.0258  56.9603 0000979 309.1610 298.0246  1.00269771 16889
Epoch: 2026-03-12T13:24Z
TLE epoch observation values (Epoch: 2026-03-12T13:24:14.071Z)
Latitude
-0.00946°
Longitude
-67.11059°
Altitude
35,784.695 km
Speed
3.075 km/s
True Right ascension
20h 16m 37s
True Declination
0° 00' 34"
Sunlit
Object was in daylight at epoch
Visualization orbit readout
Latitude
Unknown
Longitude
Unknown
Altitude
Unknown
Speed
Unknown
Apparent Right ascension
Unknown
Apparent Declination
Unknown
Sunlit
N/A
Visualization observer readout
Local Sidereal Time
01:53:37
Azimuth
Unknown
Elevation
Unknown
Doppler factor
Unknown
Orbital elements
Apogee altitude
35,792.358 km
Perigee altitude
35,784.102 km
Semi-major axis
42,166.367 km
Eccentricity
0.0001
Inclination
0.0258°
RAAN
56.9603°
Arg. of periapsis
309.161°
True anomaly
298.0147°
Mean anomaly
298.0246°
Eccentric anomaly
298.01965°
Mean motion
0.25067 °/min
Orbital period
1,436.18 mins
BSTAR
0
Loading maneuver chart data...
Computing Atmospheric mass density...
Loading historical data...
Loading historical data...
Loading historical data...
Loading historical data...
Loading historical data...
Loading historical data...
Loading historical data...
Other satellites on launch #95 in the year 2021 (2021-10-24 UTC)

Documentation

Showing up to 5 results
|